Regional Weather Roundup
Issued by NWS

Home | Current Version | Previous Version | Text Only | Print | Product List | Glossary Off
Versions: 1 2 3 4 5 6 7 8 9 10 11 12 13 14 15 16 17 18 19 20 21 22 23 24 25 26 27 28 29 30 31 32 33 34 35 36 37 38 39 40 41 42 43 44 45 46 47 48 49 50

000
ASUS43 KDTX 300210
RWRMI
MICHIGAN HOURLY REGIONAL WEATHER ROUNDUP
NATIONAL WEATHER SERVICE DETROIT/PONTIAC MI
900 PM EST THU JAN 29 2015

NOTE: "FAIR" INDICATES FEW OR NO CLOUDS BELOW 12,000 FEET WITH NO
SIGNIFICANT WEATHER AND/OR OBSTRUCTION TO VISIBILITY.

MIZ047>049-052>055-059>063-066>070-074>076-081>083-300300-
SOUTHEAST LOWER MICHIGAN

CITY           SKY/WX    TMP DP  RH WIND       PRES   REMARKS
ADRIAN         CLOUDY    32  27  81 NW16G25   30.03R
ALMA           CLOUDY    29  19  68 NW25G36   30.05R
ANN ARBOR      FLURRIES  32  26  78 NW20G25   30.00R
BAD AXE        CLOUDY    29  26  86 NW15G23   29.93R
DETROIT CITY   CLOUDY    34  27  75 NW13      29.97R
DETROIT        FLURRIES  32  28  85 W12       29.99R
FLINT          CLOUDY    31  21  66 NW22G31   30.00R
GROSSE ILE     CLOUDY    34  28  80 W13       29.97R
HILLSDALE      MIX PCPN  31  27  84 NW13G24   30.02R
HOWELL         CLOUDY    30  22  71 NW20G29   30.00R

CITY           SKY/WX    TMP DP  RH WIND       PRES   REMARKS
JACKSON        CLOUDY    30  22  72 NW10G23   30.03R
LAMBERTVILLE   CLOUDY    34  30  86 NW9       30.02R
LANSING        CLOUDY    30  22  72 NW14G24   30.04R
LAPEER         NOT AVBL
MASON          CLOUDY    30  22  70 NW13G23   30.03R
MONROE         CLOUDY    32  30  93 W12       29.99R FOG
MT. CLEMENS    MIX PCPN  32  28  86 W13       29.94R
PONTIAC        FLURRIES  30  23  75 NW24G30   29.96R
PORT HOPE        N/A     31  24  75 NW18G28   29.91R
PORT HURON     CLOUDY    30  28  93 NW10      29.93R FOG
TRI CITIES     CLOUDY    30  19  63 NW23      30.01R
YPSILANTI      CLOUDY    35  27  72 NW17G26   29.99R
$$
MIZ043>046-050>051-056>058-064>065-071>073-077>080-300300-
SOUTHWEST LOWER MICHIGAN

CITY           SKY/WX    TMP DP  RH WIND       PRES   REMARKS
BATTLE CREEK   CLOUDY    32  25  75 NW10      30.07R
BENTON HARBOR  CLOUDY    34  25  69 NW9G22    30.13R
BIG RAPIDS     FLURRIES  26  19  76 NW18G29   30.07R
COLDWATER      CLOUDY    31  25  78 NW14G20   30.06R
HOLLAND        CLOUDY    33  25  72 NW16G28   30.12R
GRAND RAPIDS   LGT SNOW  30  26  85 N14       30.08R FOG
KALAMAZOO      CLOUDY    32  26  78 NW10      30.09R
MARSHALL       MIX PCPN  30  25  81 NW7G16    30.05R
MUSKEGON       LGT SNOW  31  26  82 N23G31    30.13R
$$
MIZ016>042-300300-
NORTHERN LOWER MICHIGAN

CITY           SKY/WX    TMP DP  RH WIND       PRES   REMARKS
ALPENA         FLURRIES  23  17  78 W9G25     29.96R
BEAVER ISLAND  LGT SNOW  19  15  82 N7G20     30.13R
BELLAIRE       LGT SNOW  22  15  75 NW10G17   30.12R
CADILLAC       LGT SNOW  21  14  76 NW20G26   30.06R
CHARLEVOIX     LGT SNOW  20  16  83 NW20G33   30.15R
FRANKFORT      FLURRIES  23  17  77 N16G28    30.18R
GAYLORD        LGT SNOW  17  13  84 NW18G30   30.01R FOG
GRAYLING       LGT SNOW  20  15  81 NW17G30   30.03R
HARBOR SPRINGS LGT SNOW  19  12  73 NW14G25   30.08R
HOUGHTON LAKE  LGT SNOW  21  16  81 NW17G24   30.02R
MANISTEE       CLOUDY    25  12  58 N17G28    30.18R
OSCODA         FLURRIES  28  21  77 NW14G20   29.94R
PELLSTON       LGT SNOW  18  14  84 NW23G36   30.07R FOG
TRAVERSE CITY  LGT SNOW  24  17  74 N14G24    30.12R BLWGSNOW
$$
MIZ007>008-015-300300-
EASTERN UPPER MICHIGAN

CITY           SKY/WX    TMP DP  RH WIND       PRES   REMARKS
KINROSS        CLOUDY    12  10  92 NW23G36   30.03R WCI  -7
MACKINAC ISLAN FLURRIES  17  11  76 NW24G36   30.05R WCI  -1
NEWBERRY       LGT SNOW  15  11  86 NW15G32   30.12R WCI  -1
S. S. MARIE    LGT SNOW  14   6  70 N15       30.06R WCI  -1
$$
MIZ004>006-011>014-085-300300-
CENTRAL UPPER MICHIGAN

CITY           SKY/WX    TMP DP  RH WIND       PRES   REMARKS
MANISTIQUE     LGT SNOW  19  15  84 N14G25    30.16R
ESCANABA       MOCLDY    18   7  62 NW14G26   30.23R
MENOMINEE      PTCLDY    21   9  58 N10       30.24R
SAWYER-GWINN   LGT SNOW  14   9  79 N21G26    30.20R WCI  -4
$$
MIZ001>003-009>011-084-300300-
WESTERN UPPER MICHIGAN

CITY           SKY/WX    TMP DP  RH WIND       PRES   REMARKS
IRON MOUNTAIN  CLOUDY    18   9  68 N21G30    30.22R
HOUGHTON       CLOUDY    14   5  67 N22G29    30.29R HAZE    WCI  -4
COPPER HARBOR    N/A     17  11  77 NE26G35   30.31R WCI  -2
IRONWOOD       CLOUDY    18   9  68 N16G22    30.31R
$$

ABBREVIATIONS USED IN REMARKS
   TC - TEMPERATURE IN CELSIUS
  WCI - WIND CHILL INDEX
   HX - HEAT INDEX
  VSB - VISIBILITY




USA.gov is the U.S. government's official web portal to all federal, state and local government web resources and services.